Location: Betra
(48.4113°N, 8.6634°E)
Time: 19:38:20
(UTC+00:00)

Cosmos 2360 Rocket - Pass Details

Date: 23 May 2024
Orbit: 832 x 846 km, 71.0° (Epoch: 24 June)

Event Time Altitude Azimuth Distance (km) Brightness Sun altitude
Rises 00:13:21 0° 336° (NNW) 3,415 6.2 -20.0°
Reaches altitude 10° 00:16:15 10° 349° (N) 2,478 5.6 -19.9°
Maximum altitude 00:20:55 25° 45° (NE) 1,634 4.3 -19.7°
Drops below altitude 10° 00:25:34 10° 100° (E) 2,469 4.7 -19.5°
Sets 00:28:26 0° 113° (ESE) 3,400 5.3 -19.4°
